Weather History for KIKV - December, 2013

Change the Weather History Date:

Sunday, December 1, 2013

  Actual Average (KDSM) Record (KDSM)
Temperature  
Mean Temperature 32 °F 31 °F  
Max Temperature 39 °F 39 °F 66 °F (1970)
Min Temperature 24 °F 23 °F -8 °F (1893)
Degree Days  
Heating Degree Days 34 34  
Month to date heating degree days 34  
Since 1 July heating degree days 1292  
Cooling Degree Days 0 0  
Month to date cooling degree days 0  
Year to date cooling degree days 1066  
Moisture  
Dew Point 28 °F    
Average Humidity 80    
Maximum Humidity 93    
Minimum Humidity 65    
Precipitation  
Precipitation 0.00 in 0.06 in 1.08 in (1945)
Month to date precipitation 0.06  
Year to date precipitation 34.66  
Snow  
Snow 0.00 in 0.30 in 5.70 in (1985)
Month to date snowfall 0.3  
Since 1 July snowfall 3.2  
Snow Depth -    
Sea Level Pressure  
Sea Level Pressure 30.07 in    
Wind  
Wind Speed 5 mph (NNE)    
Max Wind Speed 8 mph    
Max Gust Speed 13 mph    
Visibility 9 miles    
Events      
T = Trace of Precipitation, MM = Missing Value Source: NWS Daily Summary

Daily Weather History Graph

Daily Weather History Graph

Search for Another Location

Airport or City:

Trip Planner

Search our weather history database for the weather conditions in past years. The results will help you decide how hot, cold, wet, or windy it might be!

Date:

Astronomy

Dec. 01, 2013 Rise Set
Actual Time 7:22 AM CST 4:44 PM CST
Civil Twilight 6:51 AM CST 5:15 PM CST
Nautical Twilight 6:16 AM CST 5:50 PM CST
Astronomical Twilight 5:43 AM CST 6:23 PM CST
Moon 5:39 AM CST (12/1) 3:55 PM CST (12/1)
Length of Visible Light 10h 24m
Length of Day
9h 22m
Waning Crescent, 2% of the Moon is Illuminated
Dec 1
Waning Crescent
Dec 2
New
Dec 9
First Quarter
Dec 17
Full
Dec 25
Last Quarter

Hourly Weather History & Observations

Time (CST) Temp. Windchill Dew Point Humidity Pressure Visibility Wind Dir Wind Speed Gust Speed Precip Events Conditions
12:15 AM 32.0 °F 25.6 °F 26.6 °F 80% 30.13 in 10.0 mi NNW 6.9 mph - N/A   Clear
12:35 AM 32.0 °F 25.6 °F 26.6 °F 80% 30.13 in 10.0 mi NNW 6.9 mph - N/A   Clear
12:55 AM 32.0 °F 24.8 °F 26.6 °F 80% 30.13 in 10.0 mi NNW 8.1 mph - N/A   Clear
1:15 AM 32.0 °F 24.8 °F 26.6 °F 80% 30.12 in 10.0 mi NNW 8.1 mph - N/A   Clear
1:35 AM 32.0 °F 25.6 °F 26.6 °F 80% 30.13 in 10.0 mi NNW 6.9 mph - N/A   Clear
1:55 AM 32.0 °F 25.6 °F 26.6 °F 80% 30.13 in 10.0 mi NNW 6.9 mph - N/A   Clear
2:15 AM 32.0 °F 25.6 °F 26.6 °F 80% 30.14 in 10.0 mi North 6.9 mph - N/A   Clear
2:35 AM 32.0 °F 25.6 °F 26.6 °F 80% 30.14 in 10.0 mi North 6.9 mph - N/A   Clear
2:55 AM 32.0 °F 26.4 °F 26.6 °F 80% 30.14 in 10.0 mi NNW 5.8 mph - N/A   Clear
3:15 AM 32.0 °F 27.5 °F 26.6 °F 80% 30.14 in 10.0 mi North 4.6 mph - N/A   Clear
3:35 AM 30.2 °F 24.3 °F 26.6 °F 86% 30.14 in 10.0 mi North 5.8 mph - N/A   Clear
3:55 AM 30.2 °F 24.3 °F 26.6 °F 86% 30.14 in 10.0 mi North 5.8 mph - N/A   Clear
4:15 AM 30.2 °F 25.4 °F 24.8 °F 80% 30.14 in 10.0 mi North 4.6 mph - N/A   Clear
4:35 AM 30.2 °F 24.3 °F 24.8 °F 80% 30.14 in 10.0 mi NNW 5.8 mph - N/A   Clear
4:55 AM 28.4 °F 23.3 °F 24.8 °F 86% 30.15 in - NNW 4.6 mph - N/A   Clear
5:15 AM 28.4 °F 23.3 °F 24.8 °F 86% 30.15 in 10.0 mi North 4.6 mph - N/A   Clear
5:35 AM 28.4 °F 22.2 °F 24.8 °F 86% 30.15 in 10.0 mi NNW 5.8 mph - N/A   Clear
5:55 AM 26.6 °F 19.1 °F 23.0 °F 86% 30.14 in 10.0 mi North 6.9 mph - N/A   Clear
6:15 AM 24.8 °F - 23.0 °F 93% 30.14 in 9.0 mi Calm Calm - N/A   Partly Cloudy
6:35 AM 26.6 °F - 23.0 °F 86% 30.14 in 10.0 mi Calm Calm - N/A   Partly Cloudy
6:55 AM 24.8 °F - 23.0 °F 93% 30.14 in 10.0 mi Calm Calm - N/A   Mostly Cloudy
7:15 AM 26.6 °F - 23.0 °F 86% 30.15 in 9.0 mi Calm Calm - N/A   Mostly Cloudy
7:35 AM 26.6 °F - 23.0 °F 86% 30.15 in 9.0 mi Calm Calm - N/A   Mostly Cloudy
7:55 AM 26.6 °F - 24.8 °F 93% 30.15 in 9.0 mi Calm Calm - N/A   Mostly Cloudy
8:15 AM 26.6 °F - 23.0 °F 86% 30.15 in 9.0 mi Calm Calm - N/A   Mostly Cloudy
8:35 AM 30.2 °F 24.3 °F 24.8 °F 80% 30.16 in 9.0 mi NNW 5.8 mph - N/A   Scattered Clouds
8:55 AM 30.2 °F 23.4 °F 24.8 °F 80% 30.16 in 9.0 mi North 6.9 mph - N/A   Scattered Clouds
9:15 AM 30.2 °F 22.6 °F 26.6 °F 86% 30.16 in 10.0 mi North 8.1 mph - N/A   Mostly Cloudy
9:35 AM 32.0 °F 26.4 °F 26.6 °F 80% 30.16 in 9.0 mi North 5.8 mph - N/A   Scattered Clouds
9:55 AM 33.8 °F 28.6 °F 26.6 °F 75% 30.16 in 10.0 mi North 5.8 mph - N/A   Mostly Cloudy
10:15 AM 33.8 °F 29.6 °F 26.6 °F 75% 30.15 in 9.0 mi East 4.6 mph - N/A   Overcast
10:35 AM 35.6 °F 32.8 °F 26.6 °F 70% 30.15 in 9.0 mi NNE 3.5 mph - N/A   Mostly Cloudy
10:55 AM 35.6 °F - 28.4 °F 75% 30.14 in 9.0 mi Calm Calm - N/A   Clear
11:15 AM 37.4 °F - 28.4 °F 70% 30.13 in 10.0 mi Calm Calm - N/A   Clear
11:35 AM 37.4 °F - 28.4 °F 70% 30.13 in 9.0 mi Calm Calm - N/A   Clear
11:55 AM 37.4 °F - 28.4 °F 70% 30.12 in 9.0 mi Calm Calm - N/A   Clear
12:15 PM 39.2 °F 35.9 °F 30.2 °F 70% 30.11 in 9.0 mi North 4.6 mph - N/A   Clear
12:35 PM 39.2 °F - 30.2 °F 70% 30.10 in 9.0 mi Calm Calm - N/A   Partly Cloudy
12:55 PM 39.2 °F 35.9 °F 30.2 °F 70% 30.09 in 10.0 mi Variable 4.6 mph - N/A   Clear
1:15 PM 39.2 °F 37.0 °F 30.2 °F 70% 30.08 in 9.0 mi NNE 3.5 mph - N/A   Clear
1:35 PM 39.2 °F 35.9 °F 30.2 °F 70% 30.07 in 9.0 mi Variable 4.6 mph - N/A   Clear
1:55 PM 39.2 °F 37.0 °F 28.4 °F 65% 30.06 in 9.0 mi NE 3.5 mph - N/A   Clear
2:15 PM 39.2 °F 35.9 °F 30.2 °F 70% 30.05 in 9.0 mi North 4.6 mph - N/A   Clear
2:35 PM 39.2 °F 37.0 °F 30.2 °F 70% 30.05 in 9.0 mi Variable 3.5 mph - N/A   Clear
2:55 PM 39.2 °F 35.0 °F 30.2 °F 70% 30.04 in 9.0 mi North 5.8 mph - N/A   Clear
3:15 PM 39.2 °F 37.0 °F 30.2 °F 70% 30.03 in 9.0 mi NE 3.5 mph - N/A   Mostly Cloudy
3:35 PM 39.2 °F 34.2 °F 30.2 °F 70% 30.03 in 9.0 mi North 6.9 mph - N/A   Overcast
3:55 PM 39.2 °F 35.9 °F 30.2 °F 70% 30.03 in 9.0 mi NNE 4.6 mph - N/A   Mostly Cloudy
4:15 PM 37.4 °F - 30.2 °F 75% 30.02 in 9.0 mi Calm Calm - N/A   Overcast
4:35 PM 37.4 °F - 30.2 °F 75% 30.02 in 9.0 mi Calm Calm - N/A   Overcast
4:55 PM 37.4 °F 34.9 °F 30.2 °F 75% 30.02 in 9.0 mi NNE 3.5 mph - N/A   Overcast
5:15 PM 35.6 °F - 30.2 °F 81% 30.01 in 10.0 mi Calm Calm - N/A   Overcast
5:35 PM 35.6 °F 32.8 °F 30.2 °F 81% 30.01 in 10.0 mi NE 3.5 mph - N/A   Overcast
5:55 PM 35.6 °F - 30.2 °F 81% 30.01 in 10.0 mi Calm Calm - N/A   Overcast
6:15 PM 35.6 °F - 30.2 °F 81% 30.01 in 10.0 mi Calm Calm - N/A   Overcast
6:35 PM 35.6 °F 32.8 °F 30.2 °F 81% 30.01 in 10.0 mi North 3.5 mph - N/A   Overcast
6:55 PM 33.8 °F 29.6 °F 30.2 °F 87% 30.02 in 9.0 mi North 4.6 mph - N/A   Overcast
7:15 PM 33.8 °F 29.6 °F 30.2 °F 87% 30.01 in 7.0 mi NNE 4.6 mph - N/A   Overcast
7:35 PM 33.8 °F - 30.2 °F 87% 30.00 in 8.0 mi Calm Calm - N/A   Overcast
7:55 PM 33.8 °F 30.8 °F 30.2 °F 87% 29.99 in 8.0 mi ENE 3.5 mph - N/A   Overcast
8:15 PM 35.6 °F 31.7 °F 30.2 °F 81% 29.98 in 10.0 mi ENE 4.6 mph - N/A   Overcast
8:35 PM 33.8 °F 29.6 °F 28.4 °F 81% 29.97 in 9.0 mi East 4.6 mph - N/A   Overcast
8:55 PM 32.0 °F 28.7 °F 28.4 °F 87% 29.96 in 8.0 mi ESE 3.5 mph - N/A   Overcast
9:15 PM 32.0 °F 28.7 °F 28.4 °F 87% 29.95 in 8.0 mi East 3.5 mph - N/A   Overcast
9:35 PM 33.8 °F 30.8 °F 28.4 °F 81% 29.96 in 8.0 mi East 3.5 mph - N/A   Overcast
9:55 PM 33.8 °F 29.6 °F 30.2 °F 87% 29.95 in 8.0 mi East 4.6 mph - N/A   Overcast
10:15 PM 33.8 °F 28.6 °F 30.2 °F 87% 29.94 in 8.0 mi East 5.8 mph - N/A   Overcast
10:35 PM 33.8 °F 28.6 °F 30.2 °F 87% 29.94 in 8.0 mi SE 5.8 mph - N/A   Overcast
10:55 PM 33.8 °F 27.7 °F 30.2 °F 87% 29.93 in 9.0 mi ESE 6.9 mph - N/A   Overcast
11:15 PM 35.6 °F 30.7 °F 30.2 °F 81% 29.93 in 9.0 mi SE 5.8 mph - N/A   Overcast
11:35 PM 35.6 °F 30.7 °F 30.2 °F 81% 29.92 in 10.0 mi SE 5.8 mph - N/A   Overcast
11:55 PM 35.6 °F 29.9 °F 30.2 °F 81% 29.91 in 10.0 mi SE 6.9 mph 12.7 mph N/A   Overcast